Probability
0 0 0 0 0 0 0 0 0 0 0 0 0 0 0 0 0 0 0 0 0 0 0 0 0 0 0 0 0 0 0 0 0 0 0 0 0 0 0 0 0 0 0
0 0 0 0 0 0 0 0 0 0 0 0 0 0 0 0 0 0 0 0 0 0 0 0 0 0 0 0 0 0 0 0 0 0 0 0 0 0 0 0 0 0 0
0 0 0 0 0 0 0 0 0 0 0 0 0 0 0 0 0 0 0 0 0 0 0 0 0 0 0 0 0 0 0 0 0 0 0 0 0 0 0 0 0 0 0
0 0 0 0 0 0 0 0 0 0 0 0 0 0 0 0 0 0 0 0 0 0 0 0 0 0 0 0 0 0 0 0 0 0 0 0 0 0 0 0 0 0 0
0 0 0 0 0 0 0 0 0 0 0 0 0 0 0 0 0 0 0 0 0 0 0 0 0 0 0 0 0 0 0 0 0 0 0 0 0 0 0 0 0 0 0
0 0 0 0 0 0 0 0 0 0 0 0 0 0 0 0 0 0 0 0 0 0 0 0 0 0 0 0 0 0 0 0 0 0 0 0 0 0 0 0 0 0 0
0 0 0 0 0 0 0 0 0 0 0 0 0 0 0 0 0 0 0 0 0 0 0 0 0 0 0 0 0 0 0 0 0 0 0 0 0 0 0 0 0 0 0
0 0 0 0 0 0 0 0 0 0 0 0 0 0 0 0 0 0 0 0 0 0 0 0 0 0 0 0 0 0 0 0 0 0 0 0 0 0 0 0 0 0 0
0 0 0 0 0 0 0 0 0 0 0 0 0 0 0 0 0 0 0 0 0 0 0 0 0 0 0 0 0 0 0 0 0 0 0 0 0 0 0 0 0 0 0
0 0 0 0 0 0 0 0 0 0 0 0 0 0 0 0 0 0 0 0 0 0 0 0 0 0 0 0 0 0 0 0 0 0 0 0 0 0 0 0 0 0 0
0 0 0 0 0 0 0 0 0 0 0 0 0 0 0 0 0 0 0 0 0 0 0 0 0 0 0 0 0 0 0 0 0 0 0 0 0 0 0 0 0 0 0
0 0 0 0 0 0 0 0 0 0 0 0 0 0 0 0 0 0 0 0 0 0 0 0 0 0 0 0 0 0 0 0 0 0 0 0 0 0 0 0 0 0 0
0 0 0 0 0 0 0 0 0 0 0 0 0 0 0 0 0 0 0 0 0 0 0 0 0 0 0 0 0 0 0 0 0 0 0 0 0 0 0 0 0 0 0
0 0 0 0 0 0 0 0 0 0 0 0 0 0 0 0 0 0 0 0 0 0 0 0 0 0 0 0 0 0 0 0 0 0 0 0 0 0 0 0 0 0 0
0 0 0 0 0 0 0 0 0 0 0 0 0 0 0 0 0 0 0 0 0 0 0 0 0 0 0 0 0 0 0 0 0 0 0 0 0 0 0 0 0 0 0
0 0 0 0 0 0 0 0 0 0 0 0 0 0 0 0 0 0 0 0 0 0 0 0 0 0 0 0 0 0 0 0 0 0 0 0 0 0 0 0 0 0 0
0 0 0 0 0 0 0 0 0 0 0 0 0 0 0 0 0 0 0 0 0 0 0 0 0 0 0 0 0 0 0 0 0 0 0 0 0 0 0 0 0 0 0
0 0 0 0 0 0 0 0 0 0 0 0 0 0 0 0 0 0 0 0 0 0 0 0 0 0 0 0 0 0 0 0 0 0 0 0 0 0 0 0 0 0 0
0 0 0 0 0 0 0 0 0 0 0 0 0 0 0 0 0 0 0 0 0 0 0 0 0 0 0 0 0 0 0 0 0 0 0 0 0 0 0 0 0 0 0
0 0 0 0 0 0 0 0 0 0 0 0 0 0 0 0 0 0 0 0 0 0 0 0 0 0 0 0 0 0 0 0 0 0 0 0 0 0 0 0 0 0 0
0 0 0 0 0 0 0 0 0 0 0 0 0 0 0 0 0 0 0 0 0 0 0 0 0 0 0 0 0 0 0 0 0 0 0 0 0 0 0 0 0 0 0
0 0 0 0 0 0 0 0 0 0 0 0 0 0 0 0 0 0 0 0 0 0 0 0 0 0 0 0 0 0 0 0 0 0 0 0 0 0 0 0 0 0 0
0 0 0 0 0 0 0 0 0 0 0 0 0 0 0 0 0 0 0 0 0 0 0 0 0 0 0 0 0 0 0 0 0 0 0 0 0 0 0 0 0 0 0
0 0 0 0 0 0 0 0 0 0 0 0 0 0 0 0 0 0 0 0 0 0 0 0 0 0 0 0 0 0 0 0 0 0 0 0 0 0 0 0 0 0 0
0 0 0 0 0 0 0 0 0 0 0 0 0 0 0 0 0 0 0 0 0 0 0 0 0 0 0 0 0 0 0 0 0 0 0 0 0 0 0 0 0 0 0
0 0 0 0 0 0 0 0 0 0 0 0 0 0 0 0 0 0 0 0 0 0 0 0 0 0 0 0 0 0 0 0 0 0 0 0 0 0 0 0 0 0 0
Height
5558 5557 5556 5556 5557 5558 5559 5561 5562 5565 5567 5569 5572 5575 5579 5583 5587 5592 5597 5602 5606 5610 5615 5618 5623 5629 5634 5640 5645 5650 5653 5657 5660 5664 5666 5667 5668 5668 5668 5667 5666 5664 5662
5551 5549 5549 5548 5549 5549 5550 5551 5553 5555 5557 5559 5562 5565 5568 5573 5577 5581 5585 5590 5595 5599 5604 5608 5613 5618 5624 5629 5634 5639 5643 5647 5650 5653 5656 5657 5658 5659 5659 5658 5657 5655 5653
5545 5543 5542 5541 5541 5541 5542 5543 5544 5546 5548 5550 5553 5555 5559 5563 5567 5570 5575 5579 5584 5589 5593 5598 5603 5608 5613 5619 5624 5628 5632 5636 5639 5643 5645 5647 5648 5649 5649 5648 5647 5645 5643
5540 5537 5536 5535 5534 5534 5534 5534 5535 5537 5539 5541 5544 5547 5550 5553 5557 5560 5564 5569 5573 5578 5583 5587 5592 5598 5604 5608 5613 5618 5622 5625 5629 5632 5635 5637 5638 5639 5639 5638 5637 5635 5633
5536 5533 5530 5529 5528 5527 5527 5527 5528 5529 5531 5533 5535 5538 5541 5544 5547 5551 5554 5558 5563 5568 5572 5577 5582 5587 5593 5598 5603 5607 5611 5615 5618 5621 5625 5627 5628 5629 5629 5629 5627 5626 5624
5531 5527 5525 5523 5521 5521 5520 5520 5520 5522 5524 5525 5527 5530 5532 5535 5539 5542 5545 5548 5552 5557 5561 5566 5571 5577 5583 5588 5593 5597 5601 5604 5608 5611 5614 5617 5619 5620 5620 5619 5618 5617 5615
5526 5523 5520 5517 5516 5514 5514 5514 5514 5515 5516 5518 5519 5521 5524 5527 5530 5533 5535 5539 5543 5547 5551 5556 5561 5567 5573 5578 5582 5586 5590 5593 5597 5601 5604 5607 5609 5610 5610 5610 5609 5608 5606
5521 5518 5515 5513 5511 5509 5508 5507 5507 5508 5509 5510 5512 5514 5516 5519 5522 5524 5526 5529 5533 5538 5542 5547 5552 5558 5563 5567 5572 5576 5579 5583 5587 5591 5594 5597 5598 5599 5600 5600 5599 5598 5597
5517 5513 5510 5507 5506 5504 5503 5502 5501 5502 5503 5504 5505 5507 5509 5512 5514 5517 5518 5521 5525 5530 5534 5539 5544 5549 5554 5558 5562 5567 5571 5575 5578 5581 5584 5586 5587 5588 5589 5589 5589 5589 5588
5511 5508 5505 5502 5500 5499 5498 5497 5496 5497 5497 5498 5499 5501 5503 5505 5508 5510 5512 5515 5518 5522 5526 5530 5535 5540 5545 5549 5553 5557 5562 5566 5569 5572 5574 5576 5577 5578 5579 5580 5580 5580 5579
5504 5501 5499 5496 5495 5493 5492 5492 5491 5492 5492 5493 5494 5496 5497 5499 5501 5503 5505 5508 5511 5514 5518 5522 5527 5532 5536 5540 5544 5549 5553 5557 5560 5562 5564 5566 5568 5570 5571 5571 5572 5572 5571
5498 5495 5492 5490 5489 5488 5487 5486 5486 5486 5486 5487 5488 5490 5491 5493 5495 5497 5499 5501 5503 5506 5510 5515 5519 5524 5528 5532 5536 5540 5543 5547 5550 5552 5555 5557 5559 5561 5562 5563 5563 5563 5562
5491 5488 5486 5484 5483 5482 5481 5481 5481 5480 5481 5482 5483 5484 5485 5487 5489 5491 5492 5494 5497 5499 5503 5507 5511 5516 5519 5523 5527 5530 5534 5537 5540 5543 5546 5548 5550 5552 5554 5555 5555 5555 5554
5484 5481 5479 5478 5477 5476 5475 5475 5475 5475 5475 5476 5477 5478 5480 5481 5483 5485 5486 5489 5491 5493 5496 5500 5504 5507 5511 5515 5518 5522 5525 5528 5531 5534 5537 5539 5541 5543 5545 5546 5547 5546 5546
5476 5474 5472 5471 5470 5470 5469 5469 5469 5469 5469 5470 5472 5473 5474 5476 5477 5478 5480 5483 5485 5487 5489 5492 5495 5499 5503 5507 5511 5514 5516 5519 5522 5525 5528 5531 5533 5535 5536 5537 5538 5538 5538
5468 5467 5465 5464 5463 5463 5463 5463 5462 5463 5463 5464 5465 5466 5468 5469 5471 5472 5474 5476 5478 5480 5482 5486 5489 5492 5496 5499 5502 5505 5508 5510 5514 5517 5519 5522 5525 5527 5528 5529 5530 5530 5530
5460 5459 5458 5457 5456 5456 5455 5455 5456 5456 5456 5457 5458 5459 5461 5462 5464 5466 5467 5469 5471 5472 5475 5478 5481 5484 5488 5491 5494 5497 5500 5503 5506 5509 5512 5514 5517 5519 5520 5521 5522 5523 5523
5452 5451 5450 5449 5449 5448 5448 5448 5449 5449 5450 5450 5451 5452 5453 5455 5456 5458 5460 5462 5464 5466 5469 5471 5474 5477 5481 5484 5487 5490 5492 5495 5498 5501 5504 5506 5509 5511 5512 5514 5515 5516 5516
5444 5443 5442 5441 5441 5440 5440 5440 5441 5441 5442 5443 5444 5444 5445 5447 5449 5451 5452 5455 5457 5459 5462 5464 5467 5470 5473 5476 5479 5482 5485 5488 5491 5494 5497 5499 5502 5504 5506 5507 5509 5510 5510
5436 5435 5434 5433 5432 5432 5432 5432 5433 5433 5434 5434 5435 5436 5437 5439 5441 5443 5445 5447 5450 5452 5455 5458 5460 5463 5466 5469 5472 5475 5478 5481 5484 5487 5490 5493 5495 5498 5500 5501 5503 5504 5505
5427 5426 5425 5424 5423 5423 5424 5424 5424 5425 5426 5426 5427 5428 5430 5432 5434 5436 5438 5441 5443 5446 5448 5451 5454 5456 5459 5462 5465 5468 5471 5475 5478 5481 5484 5487 5489 5492 5494 5496 5497 5499 5500
5418 5417 5416 5415 5415 5415 5415 5415 5416 5416 5417 5418 5420 5421 5422 5425 5427 5429 5432 5434 5436 5439 5441 5444 5447 5450 5453 5456 5459 5462 5465 5469 5472 5475 5478 5481 5484 5487 5489 5490 5492 5494 5495
5408 5407 5407 5406 5406 5406 5406 5406 5407 5408 5409 5410 5412 5414 5416 5418 5420 5423 5425 5427 5429 5432 5434 5437 5440 5444 5446 5449 5453 5456 5460 5463 5467 5470 5474 5477 5479 5482 5484 5486 5487 5489 5490
5398 5398 5397 5396 5396 5397 5397 5398 5399 5400 5401 5403 5405 5407 5409 5411 5413 5415 5418 5420 5423 5425 5428 5431 5434 5438 5441 5444 5447 5451 5455 5458 5462 5466 5469 5472 5475 5477 5479 5481 5483 5484 5485
5388 5388 5388 5387 5388 5388 5389 5389 5390 5392 5393 5395 5397 5399 5401 5403 5406 5408 5411 5413 5416 5419 5423 5426 5429 5432 5436 5439 5443 5447 5450 5454 5458 5461 5465 5468 5471 5473 5475 5478 5479 5480 5481
5378 5378 5379 5379 5379 5380 5381 5382 5383 5384 5386 5388 5390 5392 5394 5396 5398 5401 5404 5407 5411 5414 5418 5421 5425 5428 5432 5435 5439 5442 5446 5450 5454 5458 5461 5464 5467 5470 5472 5474 5476 5477 5478
Wind_Speed
29 30 31 32 33 34 35 37 38 40 41 43 43 44 44 44 44 45 45 45 46 46 45 45 46 47 48 47 45 44 43 43 43 42 42 42 40 39 39 39 40 40 40
27 28 29 30 30 31 32 34 36 37 39 40 41 41 42 43 43 43 43 44 45 45 44 45 45 45 46 45 44 42 42 43 42 41 41 40 40 39 39 39 39 39 40
26 26 27 28 30 31 32 33 34 35 36 37 38 39 40 42 42 42 42 44 44 44 44 44 44 44 44 44 44 42 41 42 42 41 41 40 39 39 39 38 38 39 40
25 25 25 27 28 29 30 31 32 34 34 34 36 37 38 40 41 41 40 43 43 43 43 43 43 44 44 44 45 43 42 42 41 41 41 40 39 39 38 38 38 39 39
25 24 25 26 26 27 28 28 29 31 31 32 33 34 36 38 39 39 39 40 42 42 42 42 43 43 44 44 44 43 42 42 41 41 40 39 39 39 39 38 38 39 39
26 25 25 25 24 25 26 27 28 28 29 30 32 34 34 35 36 37 38 38 40 40 40 41 42 43 42 42 42 42 41 41 40 40 38 38 37 37 38 37 38 38 37
26 25 24 23 23 24 26 27 28 28 29 30 31 32 32 33 34 34 34 35 38 38 38 39 41 42 41 41 40 41 40 40 40 39 39 39 38 37 37 37 36 36 35
26 25 24 24 23 24 25 26 27 28 28 29 29 30 29 30 31 31 31 32 34 35 36 37 39 39 39 40 40 39 38 38 39 39 39 39 38 37 36 36 36 35 35
26 25 25 24 24 24 25 25 24 25 25 25 25 27 27 28 28 29 30 31 32 32 33 35 37 37 36 38 38 38 38 37 37 38 37 37 37 36 35 36 35 34 33
27 26 26 25 24 23 24 24 24 24 24 24 24 25 26 27 27 27 27 30 31 32 33 33 34 35 36 36 37 37 37 37 37 37 37 36 35 35 34 34 33 33 32
27 27 26 26 24 23 23 23 22 22 22 22 23 24 25 26 26 26 28 28 30 31 33 32 32 33 35 36 36 35 35 36 36 36 35 34 34 34 34 33 32 32 32
27 27 25 24 23 23 22 21 21 22 22 22 22 23 24 25 25 26 27 26 27 29 31 32 33 34 34 34 35 35 34 34 35 35 34 33 33 33 32 31 30 30 30
27 26 25 24 23 23 22 21 21 22 22 22 23 23 23 24 24 25 25 26 26 28 30 31 33 33 32 32 32 33 33 33 33 33 33 32 32 31 31 30 29 29 29
27 26 25 24 23 23 22 21 21 21 21 22 21 22 23 23 23 24 25 25 25 25 27 29 29 30 30 30 31 32 32 32 32 32 31 31 30 30 29 29 28 27 27
27 26 25 24 24 23 23 22 22 22 22 22 22 22 23 23 23 23 25 24 24 25 26 26 27 28 29 28 29 31 32 32 31 31 30 30 30 29 28 28 27 27 26
26 25 24 24 24 23 22 22 21 22 22 21 21 21 22 23 23 23 23 23 23 24 25 26 26 27 28 28 28 29 29 30 30 29 29 29 29 28 27 26 27 26 25
25 24 23 23 23 23 23 23 22 21 21 21 21 22 22 23 23 24 23 23 23 24 24 25 26 27 27 27 27 27 27 28 28 28 28 28 27 26 26 26 25 25 24
24 23 22 22 23 23 23 24 23 23 23 22 23 23 24 23 23 23 23 23 23 23 23 24 26 26 26 26 26 25 25 25 26 27 27 27 26 25 24 24 23 22 21
24 23 23 24 24 24 25 25 25 25 24 24 24 24 24 23 23 23 23 23 22 22 22 23 24 25 24 24 23 23 23 23 24 25 25 24 24 23 22 21 20 19 18
25 25 25 25 25 25 26 26 25 25 25 24 24 24 24 23 23 23 22 22 22 22 21 21 22 23 23 22 22 23 23 23 23 22 22 23 22 21 20 19 18 17 16
27 27 27 26 25 25 25 26 26 25 25 24 23 23 23 22 22 21 21 21 21 21 21 22 22 22 22 21 21 22 22 21 21 21 21 22 21 20 19 18 18 17 16
27 26 26 25 25 25 25 26 26 26 25 24 23 23 23 22 21 21 21 22 22 22 22 21 22 22 21 21 21 21 21 21 20 20 20 20 20 18 17 16 16 16 15
27 26 25 25 25 26 26 25 25 25 24 23 22 21 21 21 21 21 22 22 22 21 20 20 20 21 21 20 21 21 21 20 20 20 19 18 17 16 15 15 15 14 14
26 26 26 25 25 25 25 25 24 24 24 23 22 21 21 22 22 22 22 22 21 20 20 20 21 20 20 20 20 20 20 20 20 19 18 17 15 14 14 13 13 12 12
26 26 26 25 24 24 24 24 24 23 23 23 23 22 22 22 22 22 22 22 21 20 19 19 19 19 20 20 20 20 20 20 19 19 18 17 15 14 13 13 12 11 11
25 25 24 23 23 23 23 22 22 22 23 22 22 21 20 20 20 21 21 21 21 20 20 20 19 19 19 20 19 19 19 19 19 19 18 17 15 14 14 13 11 10 10
Wind_Direction
284 279 273 268 263 261 259 259 257 256 253 252 253 250 248 247 247 246 246 247 247 246 247 246 243 242 240 242 244 246 248 251 254 256 260 262 264 268 272 276 280 283 287
289 282 275 267 264 263 262 260 257 256 254 252 252 250 247 247 246 246 246 246 246 245 246 245 242 241 241 243 244 246 249 251 253 256 259 261 264 267 271 275 280 282 286
293 285 278 272 268 265 263 260 258 256 253 252 251 250 248 247 246 246 247 245 245 245 245 244 242 242 240 243 244 247 249 251 252 254 256 259 263 266 271 275 279 282 286
295 288 283 277 271 268 266 262 259 256 254 251 249 249 250 247 246 246 247 245 243 243 244 244 243 242 240 243 246 248 249 250 251 253 255 258 262 265 270 275 278 282 287
298 291 285 278 274 271 267 263 259 256 254 252 252 253 252 248 246 247 247 245 243 243 244 243 241 240 240 244 247 249 249 251 251 253 256 259 262 264 270 275 278 282 287
302 296 290 283 277 272 267 265 262 259 256 256 257 253 250 247 247 248 249 248 244 243 243 241 239 239 241 244 246 248 249 250 251 253 256 258 262 265 270 274 278 282 287
304 298 294 288 280 273 270 268 265 262 259 259 257 252 248 248 250 251 250 247 243 241 239 239 239 239 241 243 244 246 247 249 251 254 255 256 261 265 269 274 278 281 286
303 300 294 287 284 279 274 270 265 263 261 258 255 251 250 250 251 251 251 248 243 240 240 240 239 239 239 241 243 245 247 249 252 254 256 258 261 263 268 272 275 279 283
301 298 295 289 283 280 277 271 264 261 259 255 253 251 250 249 251 252 252 248 243 240 241 239 239 239 239 240 242 244 246 247 251 254 256 259 260 262 267 269 273 278 282
298 296 293 289 284 279 275 270 266 264 259 255 253 250 249 249 249 249 249 247 245 243 240 239 239 238 239 240 243 244 245 247 250 255 256 258 260 262 265 268 272 277 281
295 294 291 287 283 279 277 273 268 266 262 257 253 250 248 247 247 248 248 247 246 244 241 237 236 237 239 241 242 243 245 248 250 254 256 258 261 263 265 266 270 274 279
292 291 289 285 279 276 276 272 270 266 261 257 254 251 247 247 248 248 248 248 248 245 241 238 238 240 241 240 242 244 246 249 252 255 257 259 260 261 262 265 269 274 277
291 288 283 281 277 274 272 268 266 264 259 254 253 250 250 249 248 247 247 249 249 244 239 238 239 239 241 241 243 244 246 250 252 254 256 257 258 258 259 264 268 273 277
287 285 281 278 275 275 271 266 265 263 258 254 253 249 248 247 248 248 248 250 250 244 239 238 239 241 242 242 243 244 248 252 254 255 255 254 255 255 256 261 268 273 278
284 282 278 275 272 270 268 267 268 265 260 256 255 253 251 248 251 251 253 252 250 246 242 241 242 243 242 242 244 246 250 253 254 251 251 252 253 253 255 261 267 272 277
282 280 276 273 271 268 266 265 267 266 261 258 258 255 252 250 253 254 254 251 249 246 243 241 242 243 243 244 247 248 251 252 249 248 249 251 251 252 257 260 266 270 275
281 279 275 273 271 268 266 265 267 265 262 258 258 258 255 253 254 254 254 253 251 248 245 244 243 243 244 246 248 249 249 247 246 247 249 251 250 253 256 259 262 268 273
279 276 273 271 271 269 267 267 267 265 263 260 259 259 257 255 253 252 250 252 251 249 247 247 245 243 244 245 247 247 246 244 245 246 247 249 250 252 256 259 261 266 270
276 274 273 271 271 269 268 268 267 265 263 261 260 257 255 253 252 250 251 252 251 249 248 246 244 242 243 243 243 243 244 244 243 242 242 245 248 250 253 256 259 263 269
275 275 274 273 271 268 267 266 265 264 263 262 259 255 253 252 252 250 249 249 248 246 245 244 241 240 242 242 241 240 240 239 237 236 238 241 244 247 249 251 256 261 266
276 277 276 274 270 266 264 265 265 264 263 260 256 252 251 250 249 247 246 245 244 244 243 242 240 240 239 238 237 235 234 233 232 233 237 241 243 243 247 250 253 259 265
275 275 275 273 269 265 264 264 263 262 260 257 253 249 248 246 244 244 245 245 243 242 242 240 238 236 235 234 232 230 228 228 228 230 234 238 240 241 245 248 251 253 259
274 272 273 273 270 265 263 262 260 258 255 251 248 246 243 242 243 245 245 243 241 239 238 235 231 229 227 229 229 225 222 222 223 224 227 231 236 238 239 242 246 247 254
272 271 272 271 269 265 263 260 256 253 247 246 248 247 245 244 244 243 240 238 236 234 232 230 226 224 225 224 222 218 216 217 219 219 221 225 228 232 231 231 238 244 253
270 270 270 269 266 264 262 258 254 249 246 246 246 246 245 245 242 238 235 232 230 228 227 224 221 220 220 218 215 214 215 216 216 216 216 217 220 224 222 222 231 243 254
269 268 266 264 263 261 258 255 253 250 249 247 245 244 243 241 238 234 230 228 225 222 221 221 219 218 217 213 212 213 215 215 215 215 214 212 214 219 218 221 229 240 250